This is the latest recevied weather packets stored in our database for station/object N0HEQ. If no packets are shown the sender has not sent any weather packets the latest 10 day(s).
| Time | Temp. | Humidity | Pressure | Rain* | Wind** | Luminosity | Snow |
|---|---|---|---|---|---|---|---|
| 1777923790 | 22.78° C | 24% | 1011.5 hPa | 0 mm | - | 952 W/m² | - |
| 1777923486 | 23.33° C | 24% | 1011.3 hPa | 0 mm | - | 930 W/m² | - |
| 1777923184 | 22.22° C | 23% | 1011.5 hPa | 0 mm | - | 917 W/m² | - |
| 1777922882 | 22.22° C | 23% | 1011.5 hPa | 0 mm | - | 911 W/m² | - |
| 1777922580 | 22.22° C | 23% | 1011.5 hPa | 0 mm | - | 904 W/m² | - |
| 1777922278 | 22.22° C | 24% | 1011.4 hPa | 0 mm | - | 938 W/m² | - |
| 1777921975 | 21.67° C | 23% | 1011.4 hPa | 0 mm | - | 951 W/m² | - |
| 1777921670 | 20° C | 25% | 1011.5 hPa | 0 mm | - | 931 W/m² | - |
| 1777921367 | 19.44° C | 28% | 1011.4 hPa | 0 mm | - | 219 W/m² | - |
| 1777921064 | 19.44° C | 24% | 1011.5 hPa | 0 mm | - | 167 W/m² | - |
| 1777920761 | 19.44° C | 26% | 1011.4 hPa | 0 mm | - | 146 W/m² | - |
| 1777920457 | 18.89° C | 25% | 1011.5 hPa | 0 mm | - | 152 W/m² | - |
| 1777920153 | 18.33° C | 26% | 1011.6 hPa | 0 mm | - | 135 W/m² | - |
| 1777919849 | 17.78° C | 28% | 1011.6 hPa | 0 mm | - | 108 W/m² | - |
| 1777919546 | 18.33° C | 28% | 1011.9 hPa | 0 mm | - | 92 W/m² | - |
| 1777919244 | 19.44° C | 24% | 1011.3 hPa | 0 mm | - | 70 W/m² | - |
| 1777918941 | 19.44° C | 23% | 1011.6 hPa | 0 mm | - | 53 W/m² | - |
| 1777918638 | 20° C | 23% | 1011.4 hPa | 0 mm | - | 43 W/m² | - |
| 1777918336 | 20° C | 23% | 1011.1 hPa | 0 mm | - | 43 W/m² | - |
| 1777918035 | 20° C | 22% | 1011.4 hPa | 0 mm | - | 48 W/m² | - |
| 1777917733 | 20° C | 21% | 1011 hPa | 0 mm | - | 56 W/m² | - |
| 1777917430 | 20.56° C | 21% | 1011.3 hPa | 0 mm | - | 67 W/m² | - |
| 1777917127 | 20.56° C | 23% | 1011.3 hPa | 0 mm | - | 80 W/m² | - |
| 1777916825 | 20.56° C | 22% | 1011.4 hPa | 0 mm | - | 95 W/m² | - |
| 1777916522 | 20.56° C | 23% | 1011.5 hPa | 0 mm | - | 110 W/m² | - |
* Rain latest hour (hover to see other rain measurements)
** Current wind speed in m/s (hover to see current wind gust speed)